{"data":{"norad_id":62972,"epoch":"2026-05-25T03:55:27.713280Z","epoch_age_seconds":54144,"freshness":"FRESH","line1":"1 62972U 25030B   26145.16351520 -.00000090  00000+0  73561-4 0  9992","line2":"2 62972  50.0034 318.5310 0001291  96.2468 263.8551 13.29321791 62791","mean_motion":13.29321791,"eccentricity":0.0001291,"inclination_deg":50.0034,"raan_deg":318.531,"arg_perigee_deg":96.2468,"mean_anomaly_deg":263.8551,"bstar":7.3561e-5,"rev_number":6279,"period_min":108.32591549686,"perigee_km":1148.3506661394,"apogee_km":1150.2942561723,"semimajor_km":7527.4594611559,"source":"CELESTRAK","updated_at":"2026-05-25T13:38:03.395288Z"}}